(18085) = 1993 MK1 = 2000 JZ14 = 1986 TA1

Discovered at Socorro on 2000-05-06 by LINEAR.

Orbit

Orbit type: Main Belt

Note: WebGL enabled browser required.

epoch2024-03-31.0
epoch JD2460400.5
perihelion date2022-12-10.01489
perihelion JD2459923.51489
argument of perihelion (°)272.54558
ascending node (°)73.12361
inclination (°)6.23509
eccentricity0.2317507
perihelion distance (AU)1.8115127
Tisserand w.r.t. Jupiter3.5
ΔV w.r.t. Earth (km/sec)8.6
semimajor axis (AU)2.3579752
mean anomaly (°)129.83740
mean daily motion (°/day)0.27220430
aphelion distance (AU)2.904
period (years)3.62
P-vector [x]0.96322773
P-vector [y]-0.18236209
P-vector [z]-0.19732313
Q-vector [x]0.24777157
Q-vector [y]0.88694379
Q-vector [z]0.38979477
absolute magnitude14.33
phase slope0.15
uncertainty0
referenceMPEC 2024-F02
observations used2331
oppositions21
arc length (days)13677
first opposition used1986
last opposition used2024
residual rms (arc-secs)0.63
perturbers coarse indicatorM-v
perturbers precise indicator003Ek
first observation date used1986-10-04.0
last observation date used2024-03-15.0
computer nameMPCLINUX
JD of orbit computation2456937.451083
perihelion JD uncertainty (days)5.2158E-05
argument of perihelion uncertainty (°)3.8383E-05
ascending node uncertainty (°)3.6869E-05
inclination uncertainty (°)4.6796E-06
eccentricity uncertainty 3.5710E-08
perihelion distance uncertainty (AU)8.4141E-08
Minimum Orbit Intersection Distances (in AU)
for orbit epoch: 2460400.5, reference: E2024-GB3
Mercury1.42217
Venus1.08561
Earth0.81751
Mars0.446
Jupiter2.52505
Saturn6.39316
Uranus15.5505
Neptune27.5206

Observations

2368 total observations over interval: 1986 10 04.20681 – 2024 03 15.316789
These data are available for download (format description).

Date (UT) J2000 RA J2000 Dec Magn Location Ref
1986 10 04.20681 22 52 37.42 -20 27 28.1 17.0   688 – Lowell Observatory, Anderson Mesa Station MPC 11325
1986 10 04.26502 22 52 36.20 -20 27 12.4   688 – Lowell Observatory, Anderson Mesa Station MPC 11325
1993 06 21.35365 18 36 05.66 -27 30 29.5 16.5   675 – Palomar Mountain MPC 22328
1993 06 21.37951 18 36 03.95 -27 30 38.0   675 – Palomar Mountain MPC 22328
1993 06 22.38559 18 35 01.02 -27 36 16.9   675 – Palomar Mountain MPC 22328
1993 06 22.40972 18 34 59.38 -27 36 20.8   675 – Palomar Mountain MPC 22328
1996 03 25.35278 13 36 07.16 -01 25 35.5   261 – Palomar Mountain-DSS MPS 17678
1996 03 25.38403 13 36 05.61 -01 25 24.6   261 – Palomar Mountain-DSS MPS 17678
1996 04 22.36864 13 09 53.41 +00 46 48.9 18.4 V 691 – Steward Observatory, Kitt Peak-Spacewatch MPS 80778
1996 04 22.37630 13 09 52.97 +00 46 50.5 18.4 V 691 – Steward Observatory, Kitt Peak-Spacewatch MPS 80778
1996 04 22.38419 13 09 52.52 +00 46 52.2 18.3 V 691 – Steward Observatory, Kitt Peak-Spacewatch MPS 80778
1996 05 07.17778 12 57 43.05 +01 23 22.6   261 – Palomar Mountain-DSS MPS 17678
1996 05 07.20556 12 57 41.87 +01 23 24.8   261 – Palomar Mountain-DSS MPS 17678
1997 12 28.24764 01 21 10.19 +04 52 47.0 18.2 V 566 – Haleakala-NEAT/GEODSS MPS 17678
1997 12 28.25735 01 21 10.76 +04 52 53.0 17.9 V 566 – Haleakala-NEAT/GEODSS MPS 17678
1997 12 28.26698 01 21 11.32 +04 52 59.6 18.1 V 566 – Haleakala-NEAT/GEODSS MPS 17678
1998 01 26.21415 01 57 22.95 +10 11 23.0 18.8 V 566 – Haleakala-NEAT/GEODSS MPS 17678
1998 01 26.22401 01 57 23.79 +10 11 29.7 18.5 V 566 – Haleakala-NEAT/GEODSS MPS 17678
1998 01 26.23382 01 57 24.63 +10 11 36.3 19.1 V 566 – Haleakala-NEAT/GEODSS MPS 17678
2000 04 29.41208 16 04 23.70 -17 10 54.1 17.4   704 – Lincoln Laboratory ETS, New Mexico MPS 14698
2000 04 29.42440 16 04 22.85 -17 10 54.3 17.1   704 – Lincoln Laboratory ETS, New Mexico MPS 14698
2000 04 29.43665 16 04 22.47 -17 10 53.3 17.6   704 – Lincoln Laboratory ETS, New Mexico MPS 14698
2000 04 29.44902 16 04 21.88 -17 10 52.1 17.4   704 – Lincoln Laboratory ETS, New Mexico MPS 14698
2000 04 29.46239 16 04 21.22 -17 10 51.8 17.5   704 – Lincoln Laboratory ETS, New Mexico MPS 14698
2000 05 06.35347 15 58 17.16 -17 05 49.5 17.5   704 – Lincoln Laboratory ETS, New Mexico MPS 14698
2000 05 06.36558 15 58 16.41 -17 05 49.5 17.5   704 – Lincoln Laboratory ETS, New Mexico MPS 14698
2000 05 06.37774 15 58 15.68 -17 05 48.3 17.7   704 – Lincoln Laboratory ETS, New Mexico MPS 14698
2000 05 06.38986 15 58 14.98 -17 05 47.4 18.0   704 – Lincoln Laboratory ETS, New Mexico MPS 14698
2000 05 06.40199 15 58 14.27 -17 05 46.7 18.7   704 – Lincoln Laboratory ETS, New Mexico MPS 14698
2000 05 07.40097 15 57 16.35 -17 04 57.5 16.9   704 – Lincoln Laboratory ETS, New Mexico MPS 14698
2000 05 07.41054 15 57 15.76 -17 04 57.0 17.7   704 – Lincoln Laboratory ETS, New Mexico MPS 14698
2000 05 07.42011 15 57 15.18 -17 04 56.0 17.7   704 – Lincoln Laboratory ETS, New Mexico MPS 14698
2000 05 07.42969 15 57 14.58 -17 04 55.8 17.6   704 – Lincoln Laboratory ETS, New Mexico MPS 14698
2000 05 07.43926 15 57 14.03 -17 04 54.9 17.7   704 – Lincoln Laboratory ETS, New Mexico MPS 14698
2000 05 10.40251 15 54 16.04 -17 02 22.0 18.0   704 – Lincoln Laboratory ETS, New Mexico MPS 14698
2000 05 10.41398 15 54 15.26 -17 02 21.4 18.2   704 – Lincoln Laboratory ETS, New Mexico MPS 14698
2000 05 10.42540 15 54 14.50 -17 02 21.2 18.4   704 – Lincoln Laboratory ETS, New Mexico MPS 14698
2000 05 10.43681 15 54 13.75 -17 02 19.5 18.4   704 – Lincoln Laboratory ETS, New Mexico MPS 14698
2000 05 11.32300 15 53 19.20 -17 01 32.8 17.4   704 – Lincoln Laboratory ETS, New Mexico MPS 14698
2000 05 11.32313 15 53 19.24 -17 01 32.1 17.4   704 – Lincoln Laboratory ETS, New Mexico MPS 14698
2000 05 11.33457 15 53 18.46 -17 01 32.1 17.2   704 – Lincoln Laboratory ETS, New Mexico MPS 14698
2000 05 11.33471 15 53 18.31 -17 01 32.3 18.3   704 – Lincoln Laboratory ETS, New Mexico MPS 14698
2000 05 11.34616 15 53 17.69 -17 01 30.9 17.1   704 – Lincoln Laboratory ETS, New Mexico MPS 14698
2000 05 11.34630 15 53 17.62 -17 01 30.0 18.4   704 – Lincoln Laboratory ETS, New Mexico MPS 14698
2000 05 11.35774 15 53 16.93 -17 01 30.2 17.1   704 – Lincoln Laboratory ETS, New Mexico MPS 14698
2000 05 11.35788 15 53 16.94 -17 01 31.5 17.8   704 – Lincoln Laboratory ETS, New Mexico MPS 14698
2000 05 11.36932 15 53 16.17 -17 01 29.8 16.9   704 – Lincoln Laboratory ETS, New Mexico MPS 14698
2000 05 11.36946 15 53 16.11 -17 01 31.7 18.0   704 – Lincoln Laboratory ETS, New Mexico MPS 14698
2000 05 28.24099 15 34 47.57 -16 46 43.6 17.3   704 – Lincoln Laboratory ETS, New Mexico MPS 15874
2000 05 28.25436 15 34 46.66 -16 46 42.9 17.4   704 – Lincoln Laboratory ETS, New Mexico MPS 15874
2000 05 28.26774 15 34 45.74 -16 46 42.8 17.3   704 – Lincoln Laboratory ETS, New Mexico MPS 15874
2000 05 28.28114 15 34 44.84 -16 46 42.1 17.4   704 – Lincoln Laboratory ETS, New Mexico MPS 15874
2000 05 28.29453 15 34 43.94 -16 46 41.7 17.3   704 – Lincoln Laboratory ETS, New Mexico MPS 15874
2000 05 29.24468 15 33 42.18 -16 46 01.2 16.9   704 – Lincoln Laboratory ETS, New Mexico MPS 15874
2000 05 29.25801 15 33 41.30 -16 46 00.8 17.5   704 – Lincoln Laboratory ETS, New Mexico MPS 15874
2000 05 29.27133 15 33 40.42 -16 46 00.1 17.5   704 – Lincoln Laboratory ETS, New Mexico MPS 15874
2000 05 29.28489 15 33 39.50 -16 45 59.9 17.6   704 – Lincoln Laboratory ETS, New Mexico MPS 15874
2000 05 29.29822 15 33 38.61 -16 45 59.2 17.7   704 – Lincoln Laboratory ETS, New Mexico MPS 15874
2000 06 07.23377 15 24 32.26 -16 41 52.2 18.0   704 – Lincoln Laboratory ETS, New Mexico MPS 15874
2000 06 07.24683 15 24 31.53 -16 41 52.4 18.2   704 – Lincoln Laboratory ETS, New Mexico MPS 15874
2000 06 07.25996 15 24 30.78 -16 41 52.3 18.1   704 – Lincoln Laboratory ETS, New Mexico MPS 15874
2000 06 07.27298 15 24 30.00 -16 41 52.2 17.8   704 – Lincoln Laboratory ETS, New Mexico MPS 15874
2000 06 20.40708 15 14 15.38 -16 46 31.2 18.7   608 – Haleakala-AMOS MPS 17045
2000 06 20.41822 15 14 14.93 -16 46 31.8 19.1   608 – Haleakala-AMOS MPS 17045
2000 06 20.42887 15 14 14.54 -16 46 32.4 18.9   608 – Haleakala-AMOS MPS 17045
2000 06 24.18984 15 12 12.76 -16 50 50.5 17.8   704 – Lincoln Laboratory ETS, New Mexico MPS 17045
2000 06 24.20252 15 12 12.39 -16 50 52.1 18.0   704 – Lincoln Laboratory ETS, New Mexico MPS 17045
2000 06 24.21512 15 12 11.94 -16 50 52.8 17.7   704 – Lincoln Laboratory ETS, New Mexico MPS 17045
2000 06 24.22772 15 12 11.55 -16 50 53.7 17.7   704 – Lincoln Laboratory ETS, New Mexico MPS 17045
2000 06 24.24027 15 12 11.12 -16 50 54.8 17.6   704 – Lincoln Laboratory ETS, New Mexico MPS 17045
2000 07 23.16558 15 11 50.09 -18 13 36.5 18.3   704 – Lincoln Laboratory ETS, New Mexico MPS 17045
2000 07 23.17947 15 11 50.48 -18 13 40.0 18.7   704 – Lincoln Laboratory ETS, New Mexico MPS 17045
2000 07 23.19328 15 11 50.78 -18 13 43.0 18.5   704 – Lincoln Laboratory ETS, New Mexico MPS 17045
2000 07 23.20697 15 11 51.19 -18 13 45.8 18.2   704 – Lincoln Laboratory ETS, New Mexico MPS 17045
2000 07 23.22074 15 11 51.51 -18 13 49.0 18.1   704 – Lincoln Laboratory ETS, New Mexico MPS 17045
2001 10 13.40777 06 23 48.75 +22 44 27.5 18.4   704 – Lincoln Laboratory ETS, New Mexico MPS 38627
2001 10 13.42358 06 23 49.40 +22 44 29.7 18.4   704 – Lincoln Laboratory ETS, New Mexico MPS 38627
2001 10 13.43939 06 23 50.05 +22 44 31.3 18.6   704 – Lincoln Laboratory ETS, New Mexico MPS 38627
2001 10 13.45556 06 23 50.71 +22 44 33.6 18.5   704 – Lincoln Laboratory ETS, New Mexico MPS 38627
2001 10 13.47135 06 23 51.33 +22 44 35.2 18.2   704 – Lincoln Laboratory ETS, New Mexico MPS 38627
2001 10 18.40781 06 26 55.14 +22 54 45.4 18.1   704 – Lincoln Laboratory ETS, New Mexico MPS 39926
2001 10 18.42357 06 26 55.63 +22 54 47.8 18.2   704 – Lincoln Laboratory ETS, New Mexico MPS 39926
2001 10 18.43956 06 26 56.18 +22 54 50.2 18.4   704 – Lincoln Laboratory ETS, New Mexico MPS 39926
2001 10 18.45574 06 26 56.67 +22 54 53.2 18.5   704 – Lincoln Laboratory ETS, New Mexico MPS 39926
2001 10 26.39162 06 30 10.68 +23 13 24.0 19.0   704 – Lincoln Laboratory ETS, New Mexico MPS 39926
